Date,TemperatureHighF,TemperatureAvgF,TemperatureLowF,DewpointHighF,DewpointAvgF,DewpointLowF,HumidityHigh,HumidityAvg,HumidityLow,PressureMaxIn,PressureMinIn,WindSpeedMaxMPH,WindSpeedAvgMPH,GustSpeedMaxMPH,PrecipitationSumIn
2013-1-1,63.9,56.4,52.5,56.3,48.1,42.3,91,74,60,30.17,30.06,16,7,20,0.00
2013-1-2,62.8,55.2,47.7,52.9,42.6,37.0,77,63,48,30.27,30.14,15,4,17,0.00
2013-1-3,60.4,56.7,54.3,49.5,46.1,37.4,79,68,49,30.62,30.27,16,5,17,0.00
2013-1-4,62.6,56.2,51.8,53.2,48.6,43.0,92,76,63,30.65,30.56,11,5,12,0.00
2013-1-5,71.1,57.1,48.6,55.4,46.9,32.5,97,72,37,30.58,30.38,15,1,18,0.00
2013-1-6,71.2,58.8,51.6,46.9,37.5,27.9,58,46,34,30.38,30.26,14,1,14,0.00
2013-1-7,69.4,60.2,48.0,46.6,39.8,33.8,61,48,35,30.31,30.21,15,4,17,0.00
2013-1-8,66.0,58.7,52.9,46.6,41.7,37.9,64,54,43,30.37,30.27,18,7,21,0.00
2013-1-9,68.0,58.3,47.5,48.9,43.6,34.2,67,58,47,30.32,30.22,16,5,21,0.00
2013-1-10,69.1,62.0,52.9,53.8,50.3,45.9,79,66,56,30.28,30.17,11,4,13,0.00
2013-1-11,68.5,61.4,55.2,57.0,49.1,44.8,78,64,52,30.20,30.11,13,4,14,0.00
2013-1-12,66.4,60.7,54.3,52.3,47.8,43.3,73,63,54,30.20,30.10,15,6,18,0.00
2013-1-13,58.8,55.1,50.7,49.8,43.8,37.9,90,66,48,30.11,30.00,32,8,55,0.04
2013-1-14,63.5,54.7,48.2,41.9,35.9,31.3,67,50,33,30.20,30.06,18,7,26,0.00
2013-1-15,58.8,53.3,48.0,42.4,39.2,36.7,70,59,46,30.22,30.11,29,9,36,0.00
2013-1-16,58.3,54.7,52.2,51.1,44.3,39.7,80,68,61,30.21,30.04,35,11,35,0.00
2013-1-17,65.8,61.1,57.0,55.8,51.7,47.3,93,72,53,30.08,29.98,28,11,33,0.04
2013-1-18,66.9,62.8,58.5,59.9,56.9,54.7,94,81,72,30.05,29.74,21,7,23,0.00
2013-1-19,59.7,56.3,50.2,58.8,50.7,39.7,99,83,52,29.74,29.28,35,8,39,0.46
2013-1-20,58.1,52.7,48.7,48.2,42.2,39.0,87,68,52,29.84,29.47,29,11,34,0.00
2013-1-21,58.3,54.4,50.4,54.0,43.4,37.8,99,68,50,30.03,29.73,44,8,44,0.24
2013-1-22,59.0,52.1,49.6,49.1,41.8,37.8,86,68,59,30.04,29.88,22,6,27,0.06
2013-1-23,56.5,51.7,47.1,42.4,37.8,31.1,77,60,41,30.18,29.96,34,11,41,0.00
2013-1-24,60.8,56.6,51.3,52.9,48.9,41.9,89,75,59,30.15,29.94,30,9,36,0.06
2013-1-25,61.7,57.4,53.2,56.3,50.8,45.1,92,79,71,30.03,29.95,19,6,22,0.00
2013-1-26,66.4,61.4,56.8,55.4,52.8,39.9,92,74,40,30.13,30.02,27,10,30,0.00
2013-1-27,66.7,59.1,50.9,55.8,44.9,34.3,89,60,43,30.16,30.06,26,6,28,0.00
2013-1-28,68.2,58.8,52.2,56.1,42.8,37.4,82,56,35,30.35,30.14,23,6,32,0.00
2013-1-29,65.8,56.6,51.8,47.1,38.3,29.7,73,51,36,30.35,30.30,8,2,8,0.00
2013-1-30,75.7,60.2,49.1,58.5,45.4,31.5,91,63,26,30.39,30.32,12,3,17,0.00
2013-1-31,70.9,63.0,56.5,49.3,37.8,23.0,62,41,17,30.45,30.34,8,2,8,0.00
2013-2-1,78.1,63.1,53.2,55.4,43.7,37.8,64,50,29,30.37,30.11,24,4,28,0.00
2013-2-2,63.1,58.9,53.4,53.4,42.3,34.3,80,55,37,30.20,29.99,42,12,42,0.00
2013-2-3,64.0,55.0,50.0,42.3,30.9,22.6,63,41,23,30.35,30.15,28,8,34,0.00
2013-2-4,59.7,52.9,46.9,45.3,40.5,31.8,76,63,45,30.41,30.33,14,3,14,0.00
2013-2-5,67.6,55.7,46.8,53.2,42.9,35.4,76,63,49,30.34,30.14,16,3,17,0.00
2013-2-6,61.5,57.5,52.3,48.0,39.3,33.1,69,51,38,30.15,30.04,34,10,36,0.00
2013-2-7,64.8,54.5,46.2,34.5,29.4,24.6,60,40,24,30.25,30.15,20,5,24,0.00
2013-2-8,64.6,55.2,45.9,36.7,28.2,22.6,53,36,29,30.18,29.97,17,5,21,0.00
2013-2-9,61.5,54.0,46.9,41.7,31.8,21.9,65,43,29,30.24,30.04,21,6,26,0.00
2013-2-10,61.2,53.9,46.4,47.1,36.2,24.1,71,52,24,30.24,29.99,19,5,20,0.00
2013-2-11,57.9,53.9,50.0,48.4,39.3,32.5,77,58,43,30.04,29.89,34,12,44,0.00
2013-2-12,59.4,51.5,46.4,39.2,35.8,31.8,73,56,38,30.13,30.00,30,10,30,0.00
2013-2-13,72.1,60.0,50.4,46.9,42.0,32.2,68,52,39,30.17,30.07,23,6,24,0.00
2013-2-14,66.4,59.9,54.3,51.4,46.3,41.9,77,61,50,30.19,30.10,8,2,8,0.00
2013-2-15,66.0,59.1,53.8,51.3,44.4,39.6,68,58,47,30.14,30.06,8,2,9,0.00
2013-2-16,62.1,55.6,51.1,56.3,50.7,43.5,99,84,68,30.11,30.02,8,2,8,0.00
2013-2-17,63.7,56.8,48.9,53.4,49.4,44.8,99,78,54,30.03,29.89,21,4,22,0.00
2013-2-18,63.9,57.9,52.0,58.6,52.6,45.9,99,83,66,29.92,29.77,12,3,14,0.02
2013-2-19,57.0,54.8,52.3,56.1,54.0,51.8,99,98,83,29.83,29.75,15,5,17,0.47
2013-2-20,63.7,55.6,48.2,54.0,49.2,44.1,99,80,59,30.00,29.80,19,7,22,0.67
2013-2-21,64.8,57.8,50.7,57.9,48.5,38.5,99,72,53,30.00,29.88,19,6,21,0.00
2013-2-22,61.0,57.3,51.8,60.4,55.7,46.8,99,95,73,29.88,29.68,21,4,23,0.44
2013-2-23,60.1,54.3,48.0,48.6,42.9,34.2,99,67,47,30.00,29.62,28,8,34,0.05
2013-2-24,58.6,51.3,45.0,38.3,36.0,32.4,71,56,43,30.08,30.00,29,7,29,0.00
2013-2-25,62.2,51.4,42.3,36.0,31.2,25.3,68,48,30,30.12,30.03,17,6,22,0.00
2013-2-26,57.4,51.9,45.7,37.8,32.1,23.5,56,47,38,30.11,30.04,14,5,15,0.00
2013-2-27,56.5,50.9,47.3,45.7,39.1,32.4,79,64,54,30.06,29.83,13,6,15,3.02
2013-2-28,53.8,48.6,42.6,48.4,40.4,34.2,99,74,50,29.84,29.67,18,7,22,0.44
2013-3-1,59.4,51.7,45.7,41.2,39.2,37.4,78,63,48,30.01,29.84,23,8,30,0.00
2013-3-2,60.8,55.1,51.1,50.9,43.7,34.9,83,66,50,30.01,29.90,14,6,15,0.00
2013-3-3,61.0,56.3,53.2,55.0,50.7,45.5,98,82,70,29.95,29.74,13,4,173,0.00
2013-3-4,61.3,56.9,53.4,56.1,53.8,50.2,99,90,68,29.74,29.34,19,7,24,0.09
2013-3-5,64.4,57.5,54.1,60.3,55.5,53.8,99,94,71,29.46,29.35,14,4,17,0.71
2013-3-6,70.0,60.2,54.9,64.0,57.2,53.4,99,91,60,29.79,29.42,16,4,18,0.46
2013-3-7,63.1,60.0,56.7,62.8,59.6,56.3,99,99,99,29.84,29.73,25,5,28,0.46
2013-3-8,67.5,61.5,54.7,64.0,58.9,54.3,99,91,75,29.89,29.81,23,6,23,0.01
2013-3-9,62.1,58.7,54.9,61.5,57.5,45.5,99,97,63,29.87,29.79,21,3,21,0.08
2013-3-10,62.2,56.8,51.1,57.0,50.8,45.9,96,81,62,29.90,29.81,17,3,17,0.05
2013-3-11,64.6,58.7,52.9,54.0,47.7,43.9,82,67,53,29.94,29.85,21,8,29,0.00
2013-3-12,61.2,56.3,52.5,58.6,52.2,44.1,99,87,59,29.89,29.57,21,6,29,0.02
2013-3-13,58.1,53.7,48.9,51.1,37.8,27.9,80,56,34,29.95,29.62,36,11,44,0.00
2013-3-14,63.9,53.8,45.7,33.8,29.8,23.9,57,41,26,30.06,29.94,26,6,26,0.00
2013-3-15,62.6,55.4,48.4,49.1,36.8,28.0,79,50,38,30.07,29.99,12,4,14,0.00
2013-3-16,58.6,53.4,50.4,50.0,41.5,32.4,92,65,44,30.01,29.80,7,2,8,0.07
2013-3-17,65.7,58.1,52.2,59.0,49.0,34.2,99,73,44,29.81,29.57,15,3,15,0.04
2013-3-18,71.6,62.2,56.5,60.1,45.8,32.7,99,60,25,29.78,29.62,21,6,26,0.01
2013-3-19,61.7,58.1,53.4,58.8,50.9,33.4,99,79,35,29.73,29.59,8,2,11,0.37
2013-3-20,64.4,58.0,52.5,58.3,48.5,42.1,99,73,49,30.07,29.62,24,8,31,0.01
2013-3-21,66.9,58.2,52.5,55.4,47.7,40.8,81,68,54,30.07,29.91,13,3,15,0.00
2013-3-22,63.0,56.1,52.2,57.7,49.5,41.5,99,80,56,29.91,29.79,11,2,11,0.06
2013-3-23,60.8,53.8,51.1,55.6,52.0,48.9,99,94,79,29.80,29.60,14,2,15,0.43
2013-3-24,64.2,56.7,50.5,55.8,49.5,46.4,99,78,57,29.93,29.64,21,7,26,0.00
2013-3-25,63.3,58.4,52.0,56.1,50.2,40.3,81,74,45,30.01,29.92,21,6,25,24.19
2013-3-26,66.6,61.2,58.3,60.3,55.7,50.7,92,82,70,29.92,29.75,23,6,27,0.00
2013-3-27,65.7,59.8,54.9,61.3,57.6,54.5,99,93,71,29.77,29.68,17,5,23,0.00
2013-3-28,72.0,63.1,57.2,59.5,55.4,51.6,99,78,52,30.04,29.71,23,7,37,0.02
2013-3-29,71.6,64.1,59.7,60.3,54.7,48.6,99,72,53,30.04,29.94,21,6,22,0.00
2013-3-30,73.6,65.4,59.2,62.1,56.7,51.8,99,76,50,30.01,29.92,26,7,34,0.22
2013-3-31,66.2,63.4,59.7,65.8,56.9,47.3,99,81,55,29.96,29.70,19,4,25,0.00
2013-4-1,69.8,62.5,57.4,60.3,52.0,46.2,99,71,43,29.87,29.65,31,10,31,0.04
2013-4-2,66.2,60.3,56.5,58.8,51.7,47.3,88,73,61,29.95,29.79,17,6,22,0.00
2013-4-3,63.0,57.6,53.4,56.7,53.6,46.6,99,87,62,29.80,29.62,8,2,8,0.05
2013-4-4,61.0,55.1,50.5,54.7,52.7,49.1,99,92,67,29.70,29.57,14,3,14,0.14
2013-4-5,62.2,56.0,52.7,60.4,53.3,42.6,99,92,58,29.89,29.62,16,3,17,0.47
2013-4-6,62.6,54.7,47.3,42.8,38.7,34.9,68,56,39,30.12,29.90,27,8,30,0.00
2013-4-7,62.2,56.7,48.9,48.6,42.3,37.6,67,59,43,30.12,29.96,10,4,14,0.00
2013-4-8,74.8,63.1,53.8,55.9,45.6,37.0,66,53,37,29.97,29.88,20,5,26,0.00
2013-4-9,73.4,65.1,60.1,54.5,48.6,36.0,76,57,29,30.04,29.89,20,7,23,0.00
2013-4-10,76.3,66.7,59.7,62.8,55.8,52.3,85,69,49,30.10,30.01,19,7,22,0.00
2013-4-11,79.2,66.1,58.5,62.1,56.4,53.2,86,72,48,30.05,29.93,14,4,17,0.00
2013-4-12,77.0,66.1,59.5,59.7,54.4,50.0,81,67,47,30.04,29.94,22,6,23,0.00
2013-4-13,71.8,64.0,58.3,61.3,53.8,43.9,88,70,48,30.14,30.01,11,3,14,0.00
2013-4-14,69.8,63.2,57.6,59.4,55.4,49.5,96,76,66,30.17,30.06,12,4,15,0.00
2013-4-15,67.1,61.8,56.8,62.2,59.4,55.9,99,92,80,30.20,30.10,11,3,11,0.00
2013-4-16,68.2,62.7,57.6,64.2,59.7,55.2,99,90,81,30.15,30.07,9,3,11,0.00
2013-4-17,65.3,61.6,57.2,63.3,60.6,56.8,99,97,89,30.17,30.10,9,3,11,0.00
2013-4-18,66.0,59.9,55.6,63.3,59.0,55.2,99,97,88,30.16,30.05,8,3,10,0.00
2013-4-19,63.5,60.0,56.1,63.1,59.7,55.8,99,99,99,30.10,29.99,8,3,9,0.00
2013-4-20,66.4,62.0,60.1,62.8,60.1,57.7,99,94,77,30.16,30.07,9,3,11,0.01
2013-4-21,81.0,61.3,57.0,63.9,59.6,56.7,99,94,71,30.12,29.98,9,2,9,0.00
2013-4-22,66.9,61.0,55.8,63.1,58.2,54.0,99,91,72,30.01,29.92,11,3,11,0.00
2013-4-23,67.3,60.8,55.2,59.5,56.4,54.5,99,86,70,30.14,29.99,14,5,16,0.08
2013-4-24,67.6,61.5,56.7,56.7,53.5,48.6,93,76,57,30.15,30.07,14,4,15,0.00
2013-4-25,74.5,63.3,54.3,58.1,53.0,47.5,90,70,53,30.11,29.86,11,4,12,0.00
2013-4-26,69.4,64.4,60.1,63.5,59.1,52.7,99,84,59,29.96,29.87,10,3,11,0.00
2013-4-27,73.9,65.1,59.4,66.2,58.9,51.1,99,82,53,29.87,29.63,23,6,24,0.00
2013-4-28,63.9,57.1,49.6,54.7,45.1,37.2,84,65,46,29.75,29.57,29,7,29,0.00
2013-4-29,58.1,52.2,47.3,44.4,41.2,37.6,79,66,51,29.82,29.71,17,4,20,0.01
2013-4-30,60.4,52.7,46.8,50.7,47.7,44.1,99,84,67,29.97,29.78,11,4,13,0.26
2013-5-1,65.5,58.2,49.8,54.3,49.2,44.2,90,73,54,30.01,29.93,11,4,11,0.00
2013-5-2,65.8,59.0,52.3,57.9,54.2,50.7,99,85,59,30.03,29.96,9,3,11,0.00
2013-5-3,68.7,61.6,56.8,59.2,52.9,48.6,90,74,53,30.07,29.96,10,3,11,0.00
2013-5-4,67.6,61.9,55.6,61.7,54.6,46.8,90,77,62,30.16,30.04,11,3,14,0.00
2013-5-5,71.4,63.3,57.0,61.9,57.8,53.6,98,83,54,30.16,30.06,11,3,11,0.00
2013-5-6,75.2,66.8,59.0,59.4,54.2,46.9,97,65,43,30.16,30.06,8,2,9,0.00
2013-5-7,79.5,67.3,-4.7,62.6,52.4,-4.7,70,58,45,30.16,30.00,7,-3,10,0.00
2013-5-8,80.2,72.1,63.7,57.2,51.0,45.3,62,48,32,30.03,29.90,8,3,9,0.00
2013-5-9,86.7,77.9,64.8,63.5,54.0,48.6,62,45,29,29.96,29.90,17,4,20,0.00
2013-5-10,84.0,78.4,69.6,62.6,55.1,40.3,72,46,22,30.03,29.91,14,6,16,0.00
2013-5-11,72.5,66.9,62.1,70.0,64.4,59.7,99,92,72,30.07,29.99,10,3,11,0.00
2013-5-12,69.8,66.0,63.9,67.1,65.1,63.5,99,97,89,30.12,30.04,11,3,11,0.01
2013-5-13,69.8,65.4,61.3,66.7,64.4,61.0,99,97,86,30.13,29.99,12,4,13,0.01
2013-5-14,73.9,66.6,61.5,65.5,61.2,53.8,99,85,52,30.04,29.73,15,4,15,0.00
2013-5-15,72.0,64.3,59.7,62.1,56.1,40.1,99,77,33,29.74,29.58,26,6,28,0.00
2013-5-16,68.9,62.8,58.3,57.0,50.0,37.8,81,64,33,29.74,29.58,30,10,33,0.00
2013-5-17,64.8,58.7,54.9,61.9,53.6,48.6,99,84,70,29.73,29.62,25,7,28,0.08
2013-5-18,68.2,59.2,53.1,53.1,45.0,40.6,89,61,38,30.09,29.73,23,9,36,0.01
2013-5-19,63.7,59.2,54.0,54.9,48.2,42.8,82,68,47,30.12,30.03,21,7,26,0.00
2013-5-20,64.8,59.4,53.6,56.3,49.4,43.2,99,70,54,30.09,29.95,15,6,21,0.06
2013-5-21,60.6,57.6,54.3,57.0,54.9,51.4,99,91,78,30.11,29.95,11,3,12,0.01
2013-5-22,78.4,66.6,54.1,61.2,53.2,48.9,98,65,41,30.11,29.95,17,5,22,0.00
2013-5-23,84.2,76.4,66.0,63.3,56.7,50.2,61,51,40,29.98,29.87,21,6,25,0.00
2013-5-24,84.2,75.1,68.2,65.7,55.6,45.9,78,51,39,29.96,29.86,13,4,13,0.00
2013-5-25,76.1,65.9,59.4,64.9,62.1,59.0,99,88,67,30.05,29.91,12,3,12,0.00
2013-5-26,71.4,64.9,59.9,65.5,61.8,59.4,99,90,69,30.02,29.91,13,4,17,0.00
2013-5-27,75.2,64.5,58.8,63.5,58.1,47.1,99,83,38,29.95,29.79,23,6,24,0.00
2013-5-28,73.6,66.9,61.0,56.1,52.6,49.1,72,60,50,29.94,29.83,23,8,26,0.00
2013-5-29,75.7,68.1,61.0,55.4,47.8,40.5,71,50,33,29.98,29.91,33,10,33,0.00
2013-5-30,76.5,68.2,62.6,60.4,54.2,50.5,71,61,45,30.00,29.92,19,6,27,0.00
2013-5-31,84.4,70.6,57.2,59.7,52.9,40.3,86,59,28,30.01,29.88,28,5,28,0.00
2013-6-1,75.7,71.1,62.2,52.9,47.1,40.3,65,43,29,30.06,29.98,13,5,16,0.00
2013-6-2,75.4,67.2,59.5,54.9,49.0,45.5,75,53,38,30.04,29.95,11,3,13,0.00
2013-6-3,74.7,68.2,61.9,55.2,47.6,42.4,60,48,39,30.04,29.92,13,4,14,0.00
2013-6-4,73.9,68.2,60.8,59.4,51.8,40.3,75,57,38,29.99,29.83,10,3,12,0.00
2013-6-5,78.3,72.0,64.8,62.2,55.9,46.9,83,58,42,29.97,29.78,8,3,10,0.00
2013-6-6,73.9,67.3,61.7,63.3,59.5,56.7,97,77,60,30.01,29.93,15,4,17,0.00
2013-6-7,71.6,65.5,58.5,63.3,57.0,49.1,94,75,48,30.04,29.95,20,6,23,0.00
2013-6-8,74.8,66.6,61.3,59.4,52.1,48.6,79,60,41,30.05,29.95,17,8,27,0.00
2013-6-9,77.4,68.2,61.5,59.7,54.8,52.5,75,63,47,30.03,29.93,25,8,27,0.00
2013-6-10,78.8,71.3,64.2,64.9,59.0,54.5,74,65,51,30.05,29.97,18,7,22,0.00
2013-6-11,82.2,73.3,65.1,63.9,58.7,54.0,76,61,48,30.07,30.01,8,3,11,0.00
2013-6-12,81.0,72.9,65.7,70.3,63.5,56.5,86,73,58,30.11,30.02,8,2,9,0.00
2013-6-13,82.4,74.9,69.1,64.6,57.9,52.2,72,56,48,30.08,29.99,8,2,10,0.00
2013-6-14,75.0,71.5,69.3,65.1,64.6,64.0,86,79,70,30.01,29.96,4,1,4,0.00
2013-6-15,97.5,79.6,68.2,69.6,61.9,55.9,88,57,35,30.01,29.88,8,3,9,0.00
2013-6-16,79.0,73.4,70.0,71.2,64.4,55.9,93,74,49,29.96,29.80,9,3,10,0.00
2013-6-17,86.0,74.5,66.4,68.0,60.8,51.4,91,65,34,29.86,29.75,22,6,24,0.00
2013-6-18,74.3,67.9,62.2,59.4,51.9,48.0,77,57,45,29.96,29.84,32,8,32,0.00
2013-6-19,76.1,67.9,59.4,63.3,57.5,53.2,87,70,48,29.99,29.91,18,5,18,0.00
2013-6-20,77.5,70.1,62.4,66.7,58.8,51.4,85,68,48,30.04,29.94,11,3,11,0.00
2013-6-21,73.4,68.4,63.1,66.0,60.5,53.6,87,76,68,30.05,29.97,9,3,10,0.00
2013-6-22,79.2,71.4,62.6,63.9,59.4,53.2,90,67,44,30.14,30.05,11,4,13,0.00
2013-6-23,83.1,74.4,65.5,60.3,57.4,54.5,70,56,43,30.14,30.00,10,3,11,0.00
2013-6-24,79.0,73.0,67.5,65.3,60.3,53.6,81,65,56,30.12,30.04,14,4,19,0.00
2013-6-25,72.1,69.4,66.7,68.9,66.7,63.0,97,91,81,30.16,30.09,15,4,15,0.00
2013-6-26,75.6,70.2,66.7,69.6,66.9,64.9,99,90,73,30.17,30.09,13,5,16,0.00
2013-6-27,75.0,69.2,63.3,67.8,64.7,62.1,99,86,71,30.15,30.06,16,4,16,0.00
2013-6-28,76.8,71.0,64.6,66.9,62.0,57.2,94,74,53,30.19,30.08,11,4,14,0.00
2013-6-29,81.1,73.5,64.0,62.2,57.5,52.5,79,58,42,30.19,30.07,17,4,17,0.00
2013-6-30,80.8,73.5,65.8,63.5,60.9,57.6,77,65,51,30.13,29.95,10,4,11,0.00
2013-7-1,75.9,72.1,68.0,69.6,63.8,57.9,93,76,63,30.01,29.92,13,4,15,0.00
2013-7-2,76.6,71.7,66.7,70.2,66.1,61.0,92,83,73,30.02,29.94,10,3,11,0.00
2013-7-3,79.7,72.6,67.5,72.7,68.3,64.2,96,86,72,30.04,29.96,10,3,11,0.00
2013-7-4,78.3,73.2,68.2,73.9,71.3,67.3,99,94,83,30.10,30.00,11,4,15,0.00
2013-7-5,82.4,75.0,68.0,73.8,69.2,67.3,99,84,62,30.14,30.07,14,4,16,0.00
2013-7-6,81.5,74.7,67.5,70.0,67.4,64.4,96,79,57,30.14,30.06,14,4,16,0.00
2013-7-7,81.5,73.3,66.7,73.9,69.3,61.7,99,88,60,30.14,30.04,11,4,11,0.00
2013-7-8,83.8,76.7,69.6,68.4,63.6,60.3,75,64,55,30.12,30.02,12,4,13,0.00
2013-7-9,83.8,77.4,72.1,71.2,65.6,59.7,86,68,55,30.08,29.94,11,3,11,0.00
2013-7-10,92.1,79.3,72.3,74.1,65.4,58.8,84,64,36,30.02,29.81,9,3,11,0.00
2013-7-11,82.8,77.3,71.6,70.9,64.4,55.8,81,65,52,29.89,29.80,9,3,11,0.00
2013-7-12,80.6,75.6,70.2,75.4,68.3,59.9,98,79,59,30.00,29.87,9,3,11,0.00
2013-7-13,85.3,75.2,68.7,72.3,64.9,56.5,93,72,39,30.01,29.95,9,3,10,0.00
2013-7-14,84.4,74.7,66.9,70.2,63.3,52.2,94,68,56,30.02,29.94,10,3,10,0.00
2013-7-15,81.1,74.4,67.3,74.1,69.1,63.0,98,84,68,30.09,29.99,15,4,15,0.00
2013-7-16,84.2,74.9,67.6,74.5,69.0,64.0,99,83,59,30.09,30.01,10,3,10,0.00
2013-7-17,84.6,77.4,72.5,71.4,64.8,60.3,85,65,48,30.09,30.01,8,3,11,0.00
2013-7-18,83.3,77.6,72.7,73.9,66.0,59.0,83,68,57,30.06,29.96,14,3,14,0.00
2013-7-19,80.6,76.0,70.9,75.2,70.2,66.6,89,82,71,30.00,29.86,11,3,12,0.00
2013-7-20,83.7,77.6,71.4,73.0,69.0,63.5,84,75,68,29.94,29.86,11,3,11,0.00
2013-7-21,82.9,77.0,71.6,75.2,71.4,66.9,97,83,71,29.99,29.88,11,3,11,0.00
2013-7-22,83.5,77.6,72.1,75.4,71.7,67.6,96,82,66,30.00,29.91,10,3,11,0.00
2013-7-23,82.2,76.6,71.8,77.5,70.8,67.1,98,83,69,29.97,29.87,10,3,11,0.00
2013-7-24,83.3,77.7,71.6,76.6,73.0,66.0,99,86,74,29.99,29.92,9,4,11,0.00
2013-7-25,83.1,76.3,70.0,75.9,69.6,61.0,96,80,59,30.00,29.86,8,3,10,0.00
2013-7-26,87.6,77.9,72.0,75.6,68.5,60.1,94,73,56,29.94,29.77,11,3,14,0.00
2013-7-27,87.1,76.8,70.2,69.8,63.7,55.4,81,65,48,29.86,29.77,14,3,14,0.00
2013-7-28,87.8,78.1,71.4,66.4,60.4,55.2,68,56,39,30.04,29.86,19,6,19,0.00
2013-7-29,88.2,79.4,70.3,65.7,59.0,54.5,63,50,39,30.14,30.02,14,5,17,0.17
2013-7-30,87.1,80.4,73.6,64.0,57.9,53.8,64,47,37,30.15,30.06,15,4,15,0.00
2013-7-31,85.3,78.0,71.4,68.4,65.6,61.3,89,66,51,30.11,29.96,12,4,13,0.00
2013-8-1,83.1,77.6,72.5,74.5,64.5,57.7,93,65,51,30.01,29.86,11,3,14,0.00
2013-8-2,86.5,79.0,74.5,75.0,72.5,64.0,99,81,54,29.99,29.83,23,5,26,0.02
2013-8-3,84.0,78.1,74.1,77.7,74.7,70.3,99,90,75,30.02,29.93,9,3,11,0.00
2013-8-4,83.8,77.3,59.0,79.7,74.4,54.9,99,91,75,30.06,29.65,11,3,11,0.00
2013-8-5,86.2,79.2,75.0,81.3,77.4,71.4,99,94,83,30.04,29.88,11,3,12,0.00
2013-8-6,90.7,79.9,73.2,79.3,75.1,71.1,99,87,54,29.95,29.80,8,2,10,0.00
2013-8-7,93.6,84.7,76.1,73.2,64.1,55.6,89,52,29,29.85,29.74,14,5,19,0.00
2013-8-8,90.0,84.6,77.7,77.2,65.5,56.7,95,54,38,30.08,29.80,17,6,22,0.00
2013-8-9,86.0,79.3,73.2,76.8,70.9,63.1,99,77,49,30.14,30.05,14,4,17,0.00
2013-8-10,84.6,77.2,71.1,73.0,66.9,61.2,83,71,56,30.12,30.00,11,3,15,0.00
2013-8-11,86.7,77.4,71.2,75.6,66.1,58.3,99,70,44,30.05,29.96,15,4,15,0.00
2013-8-12,82.8,77.4,72.5,77.5,69.1,55.9,99,77,53,30.01,29.88,10,3,11,0.00
2013-8-13,82.9,76.0,70.0,76.8,73.6,69.6,99,93,80,29.96,29.89,14,4,14,0.00
2013-8-14,84.6,79.1,74.8,79.0,76.3,74.1,99,92,77,30.01,29.94,13,4,17,0.00
2013-8-15,82.8,77.5,72.9,77.9,71.9,67.8,99,83,69,30.03,29.96,14,3,15,0.00
2013-8-16,86.2,79.9,74.8,74.8,68.7,64.0,89,69,54,30.03,29.94,11,3,12,0.00
2013-8-17,84.7,78.2,72.9,76.5,70.3,63.3,96,77,65,30.01,29.94,11,3,11,0.00
2013-8-18,82.9,77.4,72.5,80.4,76.6,72.1,99,97,89,30.01,29.90,13,3,14,0.00
2013-8-19,83.5,78.0,72.9,80.4,75.4,62.4,99,92,62,30.05,29.94,11,3,11,0.00
2013-8-20,85.8,78.7,72.7,81.0,75.5,67.8,99,90,64,30.07,29.99,15,3,19,0.00
2013-8-21,84.0,78.4,73.0,79.2,75.4,67.6,99,91,75,30.09,29.97,11,3,13,0.00
2013-8-22,83.5,77.5,73.0,79.5,76.0,72.7,99,95,79,30.02,29.85,11,3,11,0.00
2013-8-23,84.2,78.5,73.8,82.4,77.1,70.9,99,96,87,29.91,29.83,12,3,12,0.00
2013-8-24,85.6,78.8,73.0,78.4,74.9,70.2,99,89,62,29.92,29.83,10,3,11,0.00
2013-8-25,82.8,78.4,73.9,81.1,77.1,70.5,99,96,83,29.91,29.73,11,4,12,0.00
2013-8-26,83.8,78.2,73.9,79.7,75.9,72.5,99,93,71,29.82,29.71,11,3,12,0.00
2013-8-27,85.5,77.4,71.8,75.9,73.0,69.6,99,87,72,29.89,29.80,10,3,11,0.00
2013-8-28,83.3,78.1,73.4,79.9,75.4,71.1,98,92,84,29.92,29.83,15,3,15,0.00
2013-8-29,84.0,77.9,74.5,77.4,75.2,70.9,99,92,72,30.01,29.89,15,5,16,0.00
2013-8-30,81.3,76.4,71.8,74.8,72.8,69.6,99,89,74,30.09,29.96,13,4,15,0.00
2013-8-31,81.9,75.7,71.6,76.1,71.3,64.8,99,87,65,30.13,30.06,13,4,14,0.06
2013-9-1,81.7,76.0,71.1,75.4,71.4,64.9,98,86,65,30.14,30.07,15,4,15,0.00
2013-9-2,82.4,76.8,70.2,75.2,71.4,66.4,99,85,60,30.16,30.08,15,4,16,0.00
2013-9-3,82.2,76.9,72.9,76.3,73.2,68.7,99,89,65,30.16,30.07,13,4,15,0.00
2013-9-4,81.0,75.2,69.6,75.6,72.3,69.3,99,91,73,30.13,29.97,16,4,16,0.00
2013-9-5,81.0,75.8,71.4,75.0,73.4,71.1,99,93,78,30.01,29.88,13,4,20,0.00
2013-9-6,80.1,73.9,68.0,76.1,71.5,67.6,99,93,80,29.92,29.83,11,3,14,0.00
2013-9-7,75.0,71.3,65.1,74.5,70.4,64.8,99,97,84,30.01,29.88,34,3,34,0.28
2013-9-8,80.2,73.2,67.6,76.3,71.5,67.3,99,95,77,30.14,29.99,11,3,14,0.00
2013-9-9,79.7,73.7,68.2,77.5,73.0,67.8,99,98,90,30.16,30.07,11,3,12,0.00
2013-9-10,80.2,73.9,69.4,74.1,69.1,64.9,99,86,73,30.14,30.04,11,3,14,0.00
2013-9-11,81.1,77.6,72.9,76.1,73.8,70.2,99,89,74,30.01,29.92,14,5,14,0.00
2013-9-12,81.0,75.6,70.2,76.3,73.1,69.8,99,92,78,30.07,29.99,11,3,12,0.00
2013-9-13,81.0,76.0,73.2,77.2,74.1,71.2,99,94,75,30.15,30.05,11,3,11,0.00
2013-9-14,79.3,75.2,71.1,75.6,73.5,70.3,99,95,75,30.13,29.98,15,4,15,0.00
2013-9-15,82.9,74.2,68.2,76.8,71.0,67.8,99,91,64,30.04,29.87,11,3,11,0.00
2013-9-16,82.9,73.6,70.0,79.0,72.8,69.6,99,98,87,29.92,29.83,7,2,8,0.00
2013-9-17,93.7,84.1,76.6,75.2,66.2,61.2,79,56,43,29.87,29.78,17,7,22,0.00
2013-9-18,79.0,77.4,75.4,69.6,67.7,64.6,76,72,62,29.91,29.86,5,1,8,0.00
2013-9-19,85.3,78.0,71.1,70.2,66.5,63.3,81,68,58,29.91,29.85,27,5,27,0.00
2013-9-20,81.3,76.3,70.7,76.8,70.9,64.2,93,83,68,30.07,29.89,14,4,17,0.00
2013-9-21,80.1,75.1,70.7,75.9,72.2,69.4,99,91,73,30.16,30.06,14,3,14,0.00
2013-9-22,80.4,73.6,69.1,75.2,71.6,68.7,99,94,80,30.18,30.12,12,4,13,0.00
2013-9-23,78.3,73.4,68.5,74.3,71.8,68.2,99,95,86,30.15,30.01,18,4,18,0.00
2013-9-24,77.4,72.5,68.2,74.8,71.4,67.8,99,97,86,30.03,29.91,9,2,14,0.00
2013-9-25,78.8,72.1,67.5,73.8,69.1,64.8,99,91,75,29.94,29.86,8,2,10,0.00
2013-9-26,79.3,73.2,67.5,73.9,69.0,62.6,99,87,69,29.93,29.85,8,2,11,0.00
2013-9-27,79.7,73.3,67.8,73.4,70.3,67.5,99,91,73,29.93,29.84,7,2,12,0.00
2013-9-28,76.6,70.0,66.4,74.3,69.2,66.0,99,98,73,29.89,29.81,15,5,17,0.38
2013-9-29,77.2,71.6,66.7,72.7,69.2,65.1,99,93,71,29.93,29.84,11,3,12,0.00
2013-9-30,81.3,73.2,68.2,76.6,72.0,67.3,99,96,85,29.92,29.81,15,2,16,0.00
2013-10-1,89.2,79.3,71.2,76.1,72.3,64.9,99,81,57,29.87,29.77,17,5,22,0.00
2013-10-2,82.8,76.1,70.3,72.0,65.4,59.7,81,70,58,29.82,29.71,7,2,8,0.00
2013-10-3,80.2,74.7,69.8,75.9,71.3,66.2,99,89,75,29.92,29.75,10,2,10,0.05
2013-10-4,80.6,75.2,70.5,76.8,72.1,66.0,99,91,64,30.01,29.90,9,2,10,0.00
2013-10-5,81.5,74.5,67.6,68.0,62.7,57.4,85,67,52,30.10,30.01,10,2,10,0.00
2013-10-6,79.7,72.9,67.5,75.2,69.0,56.8,99,88,66,30.11,30.02,10,3,11,0.00
2013-10-7,78.8,73.3,69.6,73.9,71.2,66.7,99,94,79,30.09,30.03,11,3,14,0.00
2013-10-8,78.6,73.0,68.4,72.9,69.3,63.7,99,88,75,30.10,30.03,11,4,40,0.00
2013-10-9,77.0,72.0,68.4,71.2,69.1,66.6,99,91,78,30.09,29.96,10,3,12,0.00
2013-10-10,78.1,71.6,66.6,69.4,67.7,65.7,99,88,66,30.01,29.88,12,3,12,0.00
2013-10-11,78.1,69.5,64.0,74.3,67.4,61.3,99,93,58,29.93,29.82,9,2,14,0.00
2013-10-12,80.6,72.5,65.5,72.1,63.1,54.1,99,74,47,30.04,29.88,13,3,14,0.00
2013-10-13,77.5,69.3,62.8,65.3,60.0,54.0,96,73,59,30.09,30.01,13,3,15,0.00
2013-10-14,75.2,69.0,63.9,64.4,60.0,55.6,82,73,63,30.12,30.04,8,2,9,0.00
2013-10-15,80.6,69.8,63.5,67.5,61.1,56.5,91,75,52,30.14,30.04,8,2,11,0.00
2013-10-16,79.7,71.0,65.1,66.9,60.7,53.4,92,70,58,30.11,29.99,8,2,9,0.00
2013-10-17,81.5,71.0,64.4,66.7,62.0,59.5,89,74,50,30.04,29.95,10,2,14,0.00
2013-10-18,76.1,69.7,66.0,67.8,59.5,53.2,85,70,58,30.00,29.92,8,2,8,0.00
2013-10-19,77.9,71.1,64.2,70.2,62.7,53.8,89,75,62,30.03,29.94,15,3,16,0.00
2013-10-20,78.8,70.6,64.2,66.4,63.0,51.8,95,78,50,30.08,30.00,11,2,12,0.00
2013-10-21,78.6,69.4,63.9,70.2,61.0,53.4,94,75,63,30.06,29.91,11,2,11,0.00
2013-10-22,70.5,66.9,63.9,67.6,62.8,55.2,99,87,69,29.96,29.88,4,1,6,0.08
2013-10-23,70.7,66.6,61.9,70.3,66.2,61.5,99,99,99,30.04,29.95,7,2,8,0.20
2013-10-24,78.3,70.5,66.2,73.0,67.3,64.4,99,90,69,30.02,29.93,8,2,9,0.00
2013-10-25,73.2,68.7,63.5,72.0,67.5,63.1,99,96,86,29.95,29.85,8,2,8,0.00
2013-10-26,72.9,68.0,63.7,67.3,64.4,57.0,99,89,58,30.20,29.93,17,4,21,0.09
2013-10-27,78.1,68.3,60.1,69.1,63.8,58.8,99,86,65,30.20,30.10,10,2,13,0.00
2013-10-28,74.8,69.4,64.8,69.4,66.3,61.3,99,91,64,30.16,29.95,9,2,11,0.00
2013-10-29,75.4,70.7,65.7,63.5,52.6,41.4,71,54,33,30.01,29.92,23,9,27,0.00
2013-10-30,71.1,64.4,58.1,54.9,46.3,39.9,79,53,38,30.16,29.99,19,4,23,0.00
2013-10-31,69.6,62.7,57.7,59.7,56.7,54.5,91,81,65,30.22,30.13,8,2,10,0.00
2013-11-1,69.6,62.3,57.2,58.5,54.5,48.7,91,77,59,30.25,30.14,9,2,12,0.00
2013-11-2,69.8,61.6,57.4,60.4,50.4,43.3,84,67,51,30.18,30.03,8,2,8,0.00
2013-11-3,77.5,67.3,58.3,62.1,52.8,40.5,84,61,43,30.06,29.98,20,3,20,0.00
2013-11-4,70.7,66.9,64.4,59.5,55.8,52.0,78,68,56,30.10,30.01,36,9,36,0.00
2013-11-5,75.9,70.2,65.3,61.7,60.4,57.6,86,71,58,30.10,30.03,32,10,40,0.00
2013-11-6,77.2,69.3,63.5,65.5,59.4,56.3,82,71,55,30.12,30.03,10,2,11,0.00
2013-11-7,75.2,67.8,61.3,66.2,59.3,55.0,86,75,58,30.09,30.00,15,3,17,0.00
2013-11-8,77.0,68.3,61.0,58.6,56.5,52.5,80,67,52,30.09,30.00,23,7,27,0.00
2013-11-9,77.9,68.1,61.2,60.1,52.7,42.8,83,60,37,30.25,30.08,21,7,21,0.00
2013-11-10,73.0,64.3,59.0,52.7,46.0,39.6,61,52,41,30.28,30.16,11,3,14,0.00
2013-11-11,76.1,67.8,60.1,55.2,48.8,37.0,67,51,31,30.17,30.01,13,3,15,0.00
2013-11-12,74.3,65.7,60.6,57.2,52.8,48.7,76,64,44,30.13,30.05,13,2,13,0.00
2013-11-13,71.4,64.8,60.4,58.1,55.0,52.7,88,71,56,30.13,30.03,11,3,13,0.00
2013-11-14,71.8,63.8,58.3,60.1,56.2,53.2,89,77,59,30.20,30.11,11,2,11,0.00
2013-11-15,75.0,63.1,54.7,54.0,42.6,32.7,86,52,26,30.19,29.88,16,4,22,0.00
2013-11-16,61.9,54.0,48.4,47.7,36.5,27.5,72,53,39,29.99,29.93,11,3,12,0.00
2013-11-17,62.4,54.3,47.7,43.5,36.2,27.7,69,52,28,29.98,29.86,17,5,21,0.00
2013-11-18,61.5,54.8,48.2,49.6,46.0,37.9,99,73,53,29.89,29.77,23,7,32,0.11
2013-11-19,65.1,57.8,51.4,47.3,45.6,43.5,76,64,50,29.91,29.80,23,8,26,0.00
2013-11-20,66.4,60.4,52.9,47.3,41.0,28.9,60,49,36,30.07,29.91,23,7,23,0.00
2013-11-21,62.1,55.8,49.1,44.2,37.3,27.5,66,50,35,30.08,29.85,26,7,29,0.00
2013-11-22,63.9,57.1,53.1,51.4,46.7,42.3,81,68,61,29.88,29.76,25,7,25,0.00
2013-11-23,61.3,55.4,49.5,47.3,39.8,33.3,70,57,38,29.90,29.78,10,2,13,0.00
2013-11-24,62.6,55.5,50.0,51.4,39.3,26.6,83,56,36,29.97,29.83,9,2,10,0.00
2013-11-25,63.0,55.6,49.8,47.8,44.2,41.0,78,66,45,30.13,29.96,9,2,11,0.00
2013-11-26,62.6,55.6,49.1,52.2,47.1,39.9,86,74,53,30.14,30.09,11,4,12,0.00
2013-11-27,62.4,57.0,54.0,52.2,48.8,44.6,83,74,65,30.14,30.06,14,6,15,0.00
2013-11-28,59.7,55.4,52.5,48.9,46.1,41.5,79,71,60,30.24,30.12,15,6,17,0.00
2013-11-29,61.2,55.4,51.4,49.1,43.0,37.9,82,63,50,30.29,30.22,11,4,12,0.00
2013-11-30,64.4,56.2,49.5,50.9,43.3,33.6,89,65,39,30.25,29.86,20,6,23,0.00
2013-12-1,60.3,53.8,48.9,48.4,35.9,25.5,75,52,37,30.04,29.78,30,7,30,0.00
2013-12-2,61.7,55.2,48.7,51.1,45.8,37.8,84,71,60,30.16,30.02,11,3,11,0.00
2013-12-3,62.2,57.3,54.1,53.6,49.9,45.1,86,76,61,30.26,30.15,11,5,13,0.00
2013-12-4,64.8,59.0,54.9,59.5,55.2,50.2,99,87,75,30.31,30.23,11,4,12,0.00
2013-12-5,64.9,57.1,52.5,58.6,54.8,52.2,99,93,71,30.34,30.26,10,2,11,0.00
2013-12-6,63.1,56.3,50.5,59.7,54.5,50.2,99,94,73,30.30,30.19,11,3,13,0.00
2013-12-7,62.2,56.3,52.5,55.4,53.0,50.2,99,89,76,30.28,30.19,10,4,10,0.00
2013-12-8,61.3,54.9,47.8,54.7,51.1,47.3,99,87,74,30.33,30.24,8,3,9,0.00
2013-12-9,63.7,58.5,54.5,58.3,52.8,47.5,99,82,70,30.38,30.30,11,4,18,0.00
2013-12-10,63.3,58.6,55.2,57.0,53.6,50.9,99,84,71,30.40,30.32,13,6,19,0.00
2013-12-11,64.4,58.7,55.0,56.1,51.4,43.3,91,77,61,30.38,30.31,18,6,18,0.00
2013-12-12,64.2,58.0,53.8,55.4,52.5,48.7,96,82,67,30.37,30.30,10,2,10,0.00
2013-12-13,64.2,58.2,51.8,60.6,55.8,51.4,99,92,68,30.34,30.22,10,2,11,0.00
2013-12-14,64.4,59.3,55.8,61.2,57.3,53.2,99,93,68,30.47,30.26,12,3,15,0.01
2013-12-15,63.7,58.8,55.2,57.9,54.7,50.5,99,87,67,30.49,30.39,11,5,17,0.00
2013-12-16,64.4,57.6,53.1,57.9,55.4,52.7,99,93,76,30.42,30.29,10,3,11,0.00
2013-12-17,63.7,58.5,54.3,58.6,56.6,53.2,99,94,79,30.35,30.29,9,3,10,0.01
2013-12-18,63.9,58.3,52.7,61.9,55.2,50.0,99,91,65,30.35,30.25,17,4,20,0.01
2013-12-19,67.3,58.8,52.5,59.4,52.5,44.8,99,80,71,30.26,29.94,43,7,43,0.28
2013-12-20,61.3,54.2,48.7,44.6,38.7,36.0,74,57,41,30.38,30.05,38,9,40,0.00
2013-12-21,62.4,56.2,48.9,51.3,45.1,36.1,95,67,49,30.47,30.35,9,2,11,0.00
2013-12-22,61.7,55.9,52.0,58.1,52.6,46.9,99,89,78,30.47,30.38,11,2,11,0.00
2013-12-23,60.8,54.5,49.5,59.4,53.5,49.3,99,97,80,30.41,30.24,8,2,10,0.00
2013-12-24,61.7,55.1,48.6,59.4,53.7,48.4,99,95,79,30.25,29.94,27,4,34,0.01
2013-12-25,62.1,57.5,54.1,60.6,55.6,46.4,99,94,74,29.94,29.60,36,13,36,1.13
2013-12-26,62.1,57.0,53.8,49.8,47.7,45.1,80,71,56,30.18,29.90,32,9,32,0.00
2013-12-27,75.4,60.6,52.9,75.4,53.4,47.8,99,77,59,30.18,29.98,22,-2,23,1.51
2013-12-28,64.6,58.8,54.3,62.6,55.2,37.0,99,90,51,30.26,29.94,6,-141,6,0.01
2013-12-29,54.3,54.3,54.3,37.0,37.0,37.0,52,52,52,30.14,30.14,6,6,0,0.00
2013-12-31,61.0,56.5,47.1,53.6,45.2,34.3,86,67,37,30.23,30.14,15,5,17,0.00
2014-1-1,67.1,60.3,55.6,58.8,53.5,45.9,99,79,61,30.15,30.05,15,5,17,0.00
2014-1-2,62.8,58.6,55.6,61.5,58.0,55.2,99,98,92,30.14,30.06,7,1,7,0.00